EN

Hourly Weather Lugi

Today, 29 November, Sunday

Time Temperature Precipitation Wind Pressure Humidity
00:00 -2°C° 0 mm 4 mps 754 mmHg 93%
01:00 -2°C° 0 mm 4 mps 754 mmHg 93%
02:00 -2°C° 0 mm 4 mps 754 mmHg 92%
03:00 -1°C° 0 mm 3 mps 754 mmHg 93%
04:00 -1°C° 0 mm 3 mps 754 mmHg 93%
05:00 -1°C° 0 mm 3 mps 754 mmHg 93%
06:00 -2°C° 0 mm 3 mps 754 mmHg 93%
07:00 -2°C° 0 mm 3 mps 754 mmHg 93%
08:00 -2°C° 0 mm 3 mps 754 mmHg 93%
09:00 -2°C° 0 mm 3 mps 754 mmHg 91%
10:00 -3°C° 0 mm 4 mps 753 mmHg 90%
11:00 -3°C° 0 mm 4 mps 753 mmHg 88%
12:00 -3°C° 0.2 mm 4 mps 753 mmHg 90%
13:00 -2°C° 0.2 mm 4 mps 753 mmHg 92%
14:00 -2°C° 0.2 mm 4 mps 752 mmHg 94%
15:00 -3°C° 0.3 mm 4 mps 752 mmHg 95%
16:00 -2°C° 0.3 mm 3 mps 752 mmHg 95%
17:00 -2°C° 0.3 mm 3 mps 752 mmHg 96%
18:00 -2°C° 0.1 mm 2 mps 752 mmHg 96%
19:00 -3°C° 0.1 mm 2 mps 752 mmHg 96%
20:00 -3°C° 0.1 mm 2 mps 752 mmHg 97%
21:00 -1°C° 0.1 mm 1 mps 752 mmHg 97%
22:00 -1°C° 0.1 mm 1 mps 752 mmHg 97%
23:00 -1°C° 0.1 mm 1 mps 752 mmHg 97%

Tomorrow, 30 November, Monday

Time Temperature Precipitation Wind Pressure Humidity
00:00 -1°C° 0 mm 1 mps 752 mmHg 97%
01:00 -1°C° 0 mm 1 mps 752 mmHg 97%
02:00 -1°C° 0 mm 1 mps 752 mmHg 97%
03:00 -1°C° 0.1 mm 1 mps 752 mmHg 96%
04:00 -2°C° 0.1 mm 2 mps 752 mmHg 96%
05:00 -2°C° 0.1 mm 2 mps 752 mmHg 95%
06:00 -2°C° 0 mm 2 mps 752 mmHg 95%
07:00 0°C° 0 mm 1 mps 753 mmHg 95%
08:00 0°C° 0 mm 1 mps 753 mmHg 95%
09:00 -2°C° 0 mm 2 mps 753 mmHg 94%
10:00 -2°C° 0 mm 2 mps 753 mmHg 92%
11:00 -2°C° 0 mm 2 mps 753 mmHg 91%
12:00 -2°C° 0 mm 2 mps 753 mmHg 90%
13:00 -2°C° 0 mm 2 mps 753 mmHg 89%
14:00 -2°C° 0 mm 2 mps 753 mmHg 88%
15:00 -2°C° 0 mm 2 mps 753 mmHg 88%
16:00 -2°C° 0 mm 2 mps 753 mmHg 89%
17:00 -2°C° 0 mm 2 mps 753 mmHg 89%
18:00 -2°C° 0 mm 2 mps 753 mmHg 89%
19:00 -2°C° 0 mm 2 mps 753 mmHg 90%
20:00 -3°C° 0 mm 2 mps 754 mmHg 90%
21:00 -4°C° 0 mm 3 mps 754 mmHg 92%
22:00 -5°C° 0 mm 3 mps 754 mmHg 93%
23:00 -5°C° 0 mm 3 mps 754 mmHg 94%

Day after tomorrow, 1 December, Tuesday

Time Temperature Precipitation Wind Pressure Humidity
00:00 -5°C° 0 mm 3 mps 754 mmHg 94%
01:00 -5°C° 0 mm 3 mps 754 mmHg 93%
02:00 -4°C° 0 mm 3 mps 754 mmHg 92%
03:00 -4°C° 0 mm 3 mps 755 mmHg 90%
04:00 -4°C° 0 mm 3 mps 755 mmHg 88%
05:00 -2°C° 0 mm 3 mps 755 mmHg 86%
06:00 -4°C° 0 mm 3 mps 755 mmHg 87%
07:00 -4°C° 0 mm 3 mps 756 mmHg 89%
08:00 -5°C° 0 mm 3 mps 756 mmHg 90%
09:00 -4°C° 0 mm 3 mps 756 mmHg 89%
10:00 -4°C° 0 mm 3 mps 756 mmHg 87%
11:00 -4°C° 0 mm 3 mps 757 mmHg 85%
12:00 -4°C° 0 mm 3 mps 757 mmHg 85%
13:00 -2°C° 0 mm 3 mps 757 mmHg 85%
14:00 -2°C° 0 mm 3 mps 758 mmHg 85%
15:00 -2°C° 0 mm 3 mps 758 mmHg 86%
16:00 -3°C° 0 mm 2 mps 758 mmHg 88%
17:00 -3°C° 0 mm 2 mps 758 mmHg 90%
18:00 -3°C° 0 mm 2 mps 759 mmHg 90%
19:00 -3°C° 0 mm 2 mps 759 mmHg 89%
20:00 -4°C° 0 mm 2 mps 759 mmHg 89%
21:00 -4°C° 0 mm 2 mps 760 mmHg 90%
22:00 -4°C° 0 mm 2 mps 760 mmHg 91%
23:00 -4°C° 0 mm 2 mps 760 mmHg 91%

2 December, Wednesday

Time Temperature Precipitation Wind Pressure Humidity
00:00 -4°C° 0 mm 2 mps 760 mmHg 89%
01:00 -2°C° 0 mm 1 mps 760 mmHg 88%
02:00 -2°C° 0 mm 1 mps 760 mmHg 86%
03:00 -2°C° 0 mm 1 mps 760 mmHg 87%
04:00 -2°C° 0 mm 1 mps 760 mmHg 88%
05:00 -5°C° 0 mm 2 mps 760 mmHg 90%
06:00 -5°C° 0 mm 2 mps 760 mmHg 91%
07:00 -5°C° 0 mm 2 mps 760 mmHg 92%
08:00 -5°C° 0 mm 2 mps 760 mmHg 94%
09:00 -5°C° 0 mm 2 mps 760 mmHg 92%
10:00 -4°C° 0 mm 2 mps 761 mmHg 90%
11:00 -4°C° 0 mm 2 mps 761 mmHg 88%
12:00 -4°C° 0 mm 2 mps 760 mmHg 88%
13:00 -3°C° 0 mm 2 mps 760 mmHg 88%
14:00 -3°C° 0 mm 2 mps 759 mmHg 87%
15:00 -4°C° 0 mm 2 mps 759 mmHg 90%
16:00 -5°C° 0 mm 2 mps 759 mmHg 92%
17:00 -5°C° 0 mm 2 mps 759 mmHg 94%
18:00 -5°C° 0 mm 2 mps 759 mmHg 95%
19:00 -5°C° 0 mm 2 mps 759 mmHg 95%
20:00 -5°C° 0 mm 2 mps 758 mmHg 95%
21:00 -5°C° 0 mm 2 mps 758 mmHg 96%
22:00 -5°C° 0 mm 2 mps 758 mmHg 96%
23:00 -3°C° 0 mm 1 mps 758 mmHg 97%

3 December, Thursday

Time Temperature Precipitation Wind Pressure Humidity
00:00 -5°C° 0 mm 2 mps 758 mmHg 96%
01:00 -4°C° 0 mm 2 mps 757 mmHg 96%
02:00 -4°C° 0 mm 2 mps 757 mmHg 96%
03:00 -4°C° 0 mm 2 mps 757 mmHg 94%
04:00 -4°C° 0 mm 2 mps 757 mmHg 92%
05:00 -4°C° 0 mm 2 mps 756 mmHg 91%
06:00 -4°C° 0 mm 2 mps 756 mmHg 91%
07:00 -4°C° 0 mm 2 mps 756 mmHg 90%
08:00 -4°C° 0 mm 2 mps 756 mmHg 90%
09:00 -4°C° 0 mm 2 mps 756 mmHg 90%
10:00 -5°C° 0 mm 3 mps 756 mmHg 90%
11:00 -4°C° 0 mm 3 mps 756 mmHg 89%
12:00 -4°C° 0 mm 3 mps 755 mmHg 88%
13:00 -4°C° 0 mm 3 mps 755 mmHg 87%
14:00 -4°C° 0 mm 3 mps 755 mmHg 86%
15:00 -4°C° 0 mm 3 mps 755 mmHg 88%
16:00 -4°C° 0 mm 3 mps 755 mmHg 89%
17:00 -4°C° 0 mm 3 mps 755 mmHg 90%
18:00 -4°C° 0 mm 3 mps 755 mmHg 91%
19:00 -4°C° 0 mm 3 mps 754 mmHg 91%
20:00 -4°C° 0 mm 3 mps 754 mmHg 92%
21:00 -4°C° 0.1 mm 3 mps 754 mmHg 92%
22:00 -4°C° 0.1 mm 4 mps 754 mmHg 93%
23:00 -4°C° 0.1 mm 4 mps 754 mmHg 94%

4 December, Friday

Time Temperature Precipitation Wind Pressure Humidity
00:00 -4°C° 0 mm 4 mps 754 mmHg 93%
01:00 -4°C° 0 mm 4 mps 754 mmHg 93%
02:00 -3°C° 0 mm 4 mps 754 mmHg 92%
03:00 -3°C° 0 mm 4 mps 753 mmHg 92%
04:00 -3°C° 0 mm 4 mps 753 mmHg 92%
05:00 -3°C° 0 mm 4 mps 753 mmHg 93%
06:00 -3°C° 0 mm 4 mps 753 mmHg 92%
07:00 -3°C° 0 mm 4 mps 753 mmHg 91%
08:00 -4°C° 0 mm 5 mps 753 mmHg 90%
09:00 -4°C° 0 mm 5 mps 753 mmHg 89%
10:00 -2°C° 0 mm 5 mps 753 mmHg 88%
11:00 -2°C° 0 mm 5 mps 753 mmHg 87%
12:00 -2°C° 0 mm 5 mps 753 mmHg 87%
13:00 -2°C° 0 mm 5 mps 753 mmHg 88%
14:00 -2°C° 0 mm 5 mps 753 mmHg 88%
15:00 -2°C° 0 mm 5 mps 753 mmHg 89%
16:00 -2°C° 0 mm 5 mps 752 mmHg 90%
17:00 -2°C° 0 mm 5 mps 752 mmHg 91%
18:00 -2°C° 0 mm 5 mps 752 mmHg 91%
19:00 -2°C° 0 mm 5 mps 752 mmHg 90%
20:00 -2°C° 0 mm 5 mps 752 mmHg 90%
21:00 -2°C° 0 mm 5 mps 752 mmHg 90%
22:00 -2°C° 0 mm 5 mps 752 mmHg 91%
23:00 -2°C° 0 mm 5 mps 752 mmHg 91%
Show more